Location: Central Coast
(33.3208°S, 151.2336°E)
Time: 16:51:29
(UTC+10:00)

Tiangong 2 - Visible Passes

Search period start: 24 April 2018 00:00
Search period end: 04 May 2018 00:00
Orbit: 381 x 388 km, 42.8° (Epoch: 23 April)

Date Brightness Start Highest point End Pass type
(mag) Time Alt. Az. Time Alt. Az. Time Alt. Az.
26 Apr 3.6 18:58:20 10° NNW 18:58:58 14° N 18:58:58 14° N visible
27 Apr 3.5 18:00:46 10° NNE 18:01:27 11° NE 18:02:09 10° NE visible
27 Apr 4.4 19:34:37 10° WNW 19:34:53 12° WNW 19:34:53 12° WNW visible
28 Apr 1.5 18:35:12 10° NW 18:38:15 44° NE 18:38:27 43° NE visible
29 Apr 3.1 19:12:16 10° W 19:14:09 29° W 19:14:09 29° W visible
30 Apr 1.0 18:12:30 10° WNW 18:15:42 88° SSW 18:17:31 24° ESE visible
01 May 2.6 18:50:05 10° W 18:52:56 28° SSW 18:53:00 28° SSW visible
02 May 1.9 17:50:04 10° W 17:53:10 46° SSW 17:56:12 11° SE visible
02 May 4.4 19:28:15 10° SW 19:28:25 11° SW 19:28:25 11° SW visible
03 May 3.0 18:28:01 10° WSW 18:30:31 21° SSW 18:31:33 18° SSE visible
